Year,Month,Day,Hour,Minute,Value (Times are PST for insolation in W/m^2)
2012,06,10,00,00,0.00
2012,06,10,00,01,0.00
2012,06,10,00,02,0.00
2012,06,10,00,03,0.00
2012,06,10,00,04,0.00
2012,06,10,00,05,0.00
2012,06,10,00,06,0.00
2012,06,10,00,07,0.00
2012,06,10,00,08,0.00
2012,06,10,00,09,0.00
2012,06,10,00,10,0.00
2012,06,10,00,11,0.00
2012,06,10,00,12,0.00
2012,06,10,00,13,0.00
2012,06,10,00,14,0.00
2012,06,10,00,15,0.00
2012,06,10,00,16,0.00
2012,06,10,00,17,0.00
2012,06,10,00,18,0.00
2012,06,10,00,19,0.00
2012,06,10,00,20,0.00
2012,06,10,00,21,0.00
2012,06,10,00,22,0.00
2012,06,10,00,23,0.00
2012,06,10,00,24,0.00
2012,06,10,00,25,0.00
2012,06,10,00,26,0.00
2012,06,10,00,27,0.00
2012,06,10,00,28,0.00
2012,06,10,00,29,0.00
2012,06,10,00,30,0.00
2012,06,10,00,31,0.00
2012,06,10,00,32,0.00
2012,06,10,00,33,0.00
2012,06,10,00,34,0.00
2012,06,10,00,35,0.00
2012,06,10,00,36,0.00
2012,06,10,00,37,0.00
2012,06,10,00,38,0.00
2012,06,10,00,39,0.00
2012,06,10,00,40,0.00
2012,06,10,00,41,0.00
2012,06,10,00,42,0.00
2012,06,10,00,43,0.00
2012,06,10,00,44,0.00
2012,06,10,00,45,0.00
2012,06,10,00,46,0.00
2012,06,10,00,47,0.00
2012,06,10,00,48,0.00
2012,06,10,00,49,0.00
2012,06,10,00,50,0.00
2012,06,10,00,51,0.00
2012,06,10,00,52,0.00
2012,06,10,00,53,0.00
2012,06,10,00,54,0.00
2012,06,10,00,55,0.00
2012,06,10,00,56,0.00
2012,06,10,00,57,0.00
2012,06,10,00,58,0.00
2012,06,10,00,59,0.00
2012,06,10,01,00,0.00
2012,06,10,01,01,0.00
2012,06,10,01,02,0.00
2012,06,10,01,03,0.00
2012,06,10,01,04,0.00
2012,06,10,01,05,0.00
2012,06,10,01,06,0.00
2012,06,10,01,07,0.00
2012,06,10,01,08,0.00
2012,06,10,01,09,0.00
2012,06,10,01,10,0.00
2012,06,10,01,11,0.00
2012,06,10,01,12,0.00
2012,06,10,01,13,0.00
2012,06,10,01,14,0.00
2012,06,10,01,15,0.00
2012,06,10,01,16,0.00
2012,06,10,01,17,0.00
2012,06,10,01,18,0.00
2012,06,10,01,19,0.00
2012,06,10,01,20,0.00
2012,06,10,01,21,0.00
2012,06,10,01,22,0.00
2012,06,10,01,23,0.00
2012,06,10,01,24,0.00
2012,06,10,01,25,0.00
2012,06,10,01,26,0.00
2012,06,10,01,27,0.00
2012,06,10,01,28,0.00
2012,06,10,01,29,0.00
2012,06,10,01,30,0.00
2012,06,10,01,31,0.00
2012,06,10,01,32,0.00
2012,06,10,01,33,0.00
2012,06,10,01,34,0.00
2012,06,10,01,35,0.00
2012,06,10,01,36,0.00
2012,06,10,01,37,0.00
2012,06,10,01,38,0.00
2012,06,10,01,39,0.00
2012,06,10,01,40,0.00
2012,06,10,01,41,0.00
2012,06,10,01,42,0.00
2012,06,10,01,43,0.00
2012,06,10,01,44,0.00
2012,06,10,01,45,0.00
2012,06,10,01,46,0.00
2012,06,10,01,47,0.00
2012,06,10,01,48,0.00
2012,06,10,01,49,0.00
2012,06,10,01,50,0.00
2012,06,10,01,51,0.00
2012,06,10,01,52,0.00
2012,06,10,01,53,0.00
2012,06,10,01,54,0.00
2012,06,10,01,55,0.00
2012,06,10,01,56,0.00
2012,06,10,01,57,0.00
2012,06,10,01,58,0.00
2012,06,10,01,59,0.00
2012,06,10,02,00,0.00
2012,06,10,02,01,0.00
2012,06,10,02,02,0.00
2012,06,10,02,03,0.00
2012,06,10,02,04,0.00
2012,06,10,02,05,0.00
2012,06,10,02,06,0.00
2012,06,10,02,07,0.00
2012,06,10,02,08,0.00
2012,06,10,02,09,0.00
2012,06,10,02,10,0.00
2012,06,10,02,11,0.00
2012,06,10,02,12,0.00
2012,06,10,02,13,0.00
2012,06,10,02,14,0.00
2012,06,10,02,15,0.00
2012,06,10,02,16,0.00
2012,06,10,02,17,0.00
2012,06,10,02,18,0.00
2012,06,10,02,19,0.00
2012,06,10,02,20,0.00
2012,06,10,02,21,0.00
2012,06,10,02,22,0.00
2012,06,10,02,23,0.00
2012,06,10,02,24,0.00
2012,06,10,02,25,0.00
2012,06,10,02,26,0.00
2012,06,10,02,27,0.00
2012,06,10,02,28,0.00
2012,06,10,02,29,0.00
2012,06,10,02,30,0.00
2012,06,10,02,31,0.00
2012,06,10,02,32,0.00
2012,06,10,02,33,0.00
2012,06,10,02,34,0.00
2012,06,10,02,35,0.00
2012,06,10,02,36,0.00
2012,06,10,02,37,0.00
2012,06,10,02,38,0.00
2012,06,10,02,39,0.00
2012,06,10,02,40,0.00
2012,06,10,02,41,0.00
2012,06,10,02,42,0.00
2012,06,10,02,43,0.00
2012,06,10,02,44,0.00
2012,06,10,02,45,0.00
2012,06,10,02,46,0.00
2012,06,10,02,47,0.00
2012,06,10,02,48,0.00
2012,06,10,02,49,0.00
2012,06,10,02,50,0.00
2012,06,10,02,51,0.00
2012,06,10,02,52,0.00
2012,06,10,02,53,0.00
2012,06,10,02,54,0.00
2012,06,10,02,55,0.00
2012,06,10,02,56,0.00
2012,06,10,02,57,0.00
2012,06,10,02,58,0.00
2012,06,10,02,59,0.00
2012,06,10,03,00,0.00
2012,06,10,03,01,0.00
2012,06,10,03,02,0.00
2012,06,10,03,03,0.00
2012,06,10,03,04,0.00
2012,06,10,03,05,0.00
2012,06,10,03,06,0.00
2012,06,10,03,07,0.00
2012,06,10,03,08,0.00
2012,06,10,03,09,0.00
2012,06,10,03,10,0.00
2012,06,10,03,11,0.00
2012,06,10,03,12,0.00
2012,06,10,03,13,0.00
2012,06,10,03,14,0.00
2012,06,10,03,15,0.00
2012,06,10,03,16,0.00
2012,06,10,03,17,0.00
2012,06,10,03,18,0.00
2012,06,10,03,19,0.00
2012,06,10,03,20,0.00
2012,06,10,03,21,0.00
2012,06,10,03,22,0.00
2012,06,10,03,23,0.00
2012,06,10,03,24,0.00
2012,06,10,03,25,0.00
2012,06,10,03,26,0.00
2012,06,10,03,27,0.00
2012,06,10,03,28,0.00
2012,06,10,03,29,0.00
2012,06,10,03,30,0.00
2012,06,10,03,31,0.00
2012,06,10,03,32,0.00
2012,06,10,03,33,0.00
2012,06,10,03,34,0.00
2012,06,10,03,35,0.00
2012,06,10,03,36,0.00
2012,06,10,03,37,0.00
2012,06,10,03,38,0.00
2012,06,10,03,39,0.00
2012,06,10,03,40,0.00
2012,06,10,03,41,0.00
2012,06,10,03,42,0.00
2012,06,10,03,43,0.00
2012,06,10,03,44,0.00
2012,06,10,03,45,0.00
2012,06,10,03,46,0.00
2012,06,10,03,47,0.00
2012,06,10,03,48,0.00
2012,06,10,03,49,0.00
2012,06,10,03,50,0.00
2012,06,10,03,51,0.00
2012,06,10,03,52,0.00
2012,06,10,03,53,0.00
2012,06,10,03,54,0.00
2012,06,10,03,55,0.00
2012,06,10,03,56,0.00
2012,06,10,03,57,0.00
2012,06,10,03,58,0.00
2012,06,10,03,59,0.00
2012,06,10,04,00,0.00
2012,06,10,04,01,0.00
2012,06,10,04,02,0.00
2012,06,10,04,03,0.00
2012,06,10,04,04,0.00
2012,06,10,04,05,0.00
2012,06,10,04,06,0.00
2012,06,10,04,07,0.00
2012,06,10,04,08,0.00
2012,06,10,04,09,0.00
2012,06,10,04,10,0.00
2012,06,10,04,11,0.00
2012,06,10,04,12,0.00
2012,06,10,04,13,0.00
2012,06,10,04,14,0.00
2012,06,10,04,15,0.00
2012,06,10,04,16,0.00
2012,06,10,04,17,0.00
2012,06,10,04,18,0.00
2012,06,10,04,19,0.00
2012,06,10,04,20,0.00
2012,06,10,04,21,0.00
2012,06,10,04,22,0.00
2012,06,10,04,23,0.00
2012,06,10,04,24,0.00
2012,06,10,04,25,0.00
2012,06,10,04,26,0.00
2012,06,10,04,27,0.00
2012,06,10,04,28,0.00
2012,06,10,04,29,0.00
2012,06,10,04,30,0.00
2012,06,10,04,31,0.00
2012,06,10,04,32,0.00
2012,06,10,04,33,0.00
2012,06,10,04,34,0.00
2012,06,10,04,35,0.00
2012,06,10,04,36,0.00
2012,06,10,04,37,0.00
2012,06,10,04,38,0.00
2012,06,10,04,39,0.00
2012,06,10,04,40,0.00
2012,06,10,04,41,0.00
2012,06,10,04,42,0.00
2012,06,10,04,43,0.00
2012,06,10,04,44,0.00
2012,06,10,04,45,0.00
2012,06,10,04,46,0.00
2012,06,10,04,47,0.00
2012,06,10,04,48,0.00
2012,06,10,04,49,0.00
2012,06,10,04,50,0.00
2012,06,10,04,51,0.00
2012,06,10,04,52,0.00
2012,06,10,04,53,0.00
2012,06,10,04,54,0.00
2012,06,10,04,55,0.00
2012,06,10,04,56,0.00
2012,06,10,04,57,0.00
2012,06,10,04,58,0.00
2012,06,10,04,59,0.00
2012,06,10,05,00,0.00
2012,06,10,05,01,0.00
2012,06,10,05,02,0.00
2012,06,10,05,03,0.00
2012,06,10,05,04,0.00
2012,06,10,05,05,0.00
2012,06,10,05,06,0.00
2012,06,10,05,07,0.00
2012,06,10,05,08,0.00
2012,06,10,05,09,0.50
2012,06,10,05,10,5.00
2012,06,10,05,11,5.00
2012,06,10,05,12,6.10
2012,06,10,05,13,7.00
2012,06,10,05,14,7.00
2012,06,10,05,15,7.00
2012,06,10,05,16,7.00
2012,06,10,05,17,7.70
2012,06,10,05,18,9.00
2012,06,10,05,19,9.00
2012,06,10,05,20,9.00
2012,06,10,05,21,9.00
2012,06,10,05,22,9.00
2012,06,10,05,23,9.80
2012,06,10,05,24,11.00
2012,06,10,05,25,11.00
2012,06,10,05,26,11.00
2012,06,10,05,27,12.00
2012,06,10,05,28,12.00
2012,06,10,05,29,12.80
2012,06,10,05,30,14.00
2012,06,10,05,31,14.00
2012,06,10,05,32,15.80
2012,06,10,05,33,16.00
2012,06,10,05,34,16.50
2012,06,10,05,35,18.00
2012,06,10,05,36,18.00
2012,06,10,05,37,18.80
2012,06,10,05,38,19.00
2012,06,10,05,39,19.30
2012,06,10,05,40,21.00
2012,06,10,05,41,21.00
2012,06,10,05,42,22.20
2012,06,10,05,43,23.00
2012,06,10,05,44,24.80
2012,06,10,05,45,25.00
2012,06,10,05,46,25.40
2012,06,10,05,47,26.00
2012,06,10,05,48,26.00
2012,06,10,05,49,27.60
2012,06,10,05,50,28.00
2012,06,10,05,51,28.00
2012,06,10,05,52,28.00
2012,06,10,05,53,28.00
2012,06,10,05,54,28.00
2012,06,10,05,55,28.00
2012,06,10,05,56,26.10
2012,06,10,05,57,26.00
2012,06,10,05,58,26.00
2012,06,10,05,59,26.00
2012,06,10,06,00,27.40
2012,06,10,06,01,28.00
2012,06,10,06,02,28.20
2012,06,10,06,03,30.00
2012,06,10,06,04,30.90
2012,06,10,06,05,32.00
2012,06,10,06,06,32.00
2012,06,10,06,07,32.00
2012,06,10,06,08,32.00
2012,06,10,06,09,32.00
2012,06,10,06,10,32.00
2012,06,10,06,11,32.00
2012,06,10,06,12,32.00
2012,06,10,06,13,32.00
2012,06,10,06,14,33.00
2012,06,10,06,15,33.60
2012,06,10,06,16,35.00
2012,06,10,06,17,36.20
2012,06,10,06,18,39.20
2012,06,10,06,19,43.80
2012,06,10,06,20,47.30
2012,06,10,06,21,49.00
2012,06,10,06,22,48.10
2012,06,10,06,23,46.40
2012,06,10,06,24,46.00
2012,06,10,06,25,46.90
2012,06,10,06,26,47.40
2012,06,10,06,27,49.70
2012,06,10,06,28,52.00
2012,06,10,06,29,53.70
2012,06,10,06,30,55.60
2012,06,10,06,31,58.00
2012,06,10,06,32,59.50
2012,06,10,06,33,58.00
2012,06,10,06,34,56.00
2012,06,10,06,35,51.90
2012,06,10,06,36,53.40
2012,06,10,06,37,60.50
2012,06,10,06,38,66.10
2012,06,10,06,39,69.40
2012,06,10,06,40,69.50
2012,06,10,06,41,66.20
2012,06,10,06,42,65.00
2012,06,10,06,43,69.40
2012,06,10,06,44,73.30
2012,06,10,06,45,78.60
2012,06,10,06,46,82.10
2012,06,10,06,47,83.70
2012,06,10,06,48,84.00
2012,06,10,06,49,83.20
2012,06,10,06,50,85.10
2012,06,10,06,51,89.30
2012,06,10,06,52,92.20
2012,06,10,06,53,94.40
2012,06,10,06,54,96.80
2012,06,10,06,55,98.40
2012,06,10,06,56,100.60
2012,06,10,06,57,103.30
2012,06,10,06,58,108.60
2012,06,10,06,59,114.50
2012,06,10,07,00,119.40
2012,06,10,07,01,123.40
2012,06,10,07,02,125.60
2012,06,10,07,03,124.00
2012,06,10,07,04,119.10
2012,06,10,07,05,115.00
2012,06,10,07,06,112.90
2012,06,10,07,07,110.60
2012,06,10,07,08,109.00
2012,06,10,07,09,108.00
2012,06,10,07,10,107.00
2012,06,10,07,11,105.40
2012,06,10,07,12,105.10
2012,06,10,07,13,107.80
2012,06,10,07,14,112.10
2012,06,10,07,15,114.00
2012,06,10,07,16,113.30
2012,06,10,07,17,109.80
2012,06,10,07,18,105.10
2012,06,10,07,19,104.00
2012,06,10,07,20,104.30
2012,06,10,07,21,107.00
2012,06,10,07,22,111.70
2012,06,10,07,23,118.60
2012,06,10,07,24,125.30
2012,06,10,07,25,130.50
2012,06,10,07,26,132.00
2012,06,10,07,27,130.90
2012,06,10,07,28,126.30
2012,06,10,07,29,121.60
2012,06,10,07,30,125.90
2012,06,10,07,31,119.20
2012,06,10,07,32,112.70
2012,06,10,07,33,112.20
2012,06,10,07,34,115.20
2012,06,10,07,35,119.40
2012,06,10,07,36,127.80
2012,06,10,07,37,133.50
2012,06,10,07,38,138.70
2012,06,10,07,39,139.80
2012,06,10,07,40,137.60
2012,06,10,07,41,134.10
2012,06,10,07,42,129.20
2012,06,10,07,43,124.30
2012,06,10,07,44,124.90
2012,06,10,07,45,135.40
2012,06,10,07,46,157.80
2012,06,10,07,47,190.10
2012,06,10,07,48,236.40
2012,06,10,07,49,308.60
2012,06,10,07,50,314.00
2012,06,10,07,51,246.50
2012,06,10,07,52,192.40
2012,06,10,07,53,172.60
2012,06,10,07,54,169.00
2012,06,10,07,55,171.60
2012,06,10,07,56,180.50
2012,06,10,07,57,189.60
2012,06,10,07,58,198.30
2012,06,10,07,59,208.80
2012,06,10,08,00,212.20
2012,06,10,08,01,204.40
2012,06,10,08,02,196.50
2012,06,10,08,03,191.10
2012,06,10,08,04,188.30
2012,06,10,08,05,185.90
2012,06,10,08,06,184.00
2012,06,10,08,07,181.00
2012,06,10,08,08,183.60
2012,06,10,08,09,192.60
2012,06,10,08,10,204.40
2012,06,10,08,11,211.40
2012,06,10,08,12,214.50
2012,06,10,08,13,216.80
2012,06,10,08,14,219.20
2012,06,10,08,15,217.20
2012,06,10,08,16,210.10
2012,06,10,08,17,201.70
2012,06,10,08,18,200.60
2012,06,10,08,19,208.30
2012,06,10,08,20,233.40
2012,06,10,08,21,268.40
2012,06,10,08,22,304.80
2012,06,10,08,23,299.50
2012,06,10,08,24,268.30
2012,06,10,08,25,250.90
2012,06,10,08,26,244.20
2012,06,10,08,27,243.80
2012,06,10,08,28,254.60
2012,06,10,08,29,271.80
2012,06,10,08,30,286.10
2012,06,10,08,31,292.00
2012,06,10,08,32,298.30
2012,06,10,08,33,292.50
2012,06,10,08,34,270.00
2012,06,10,08,35,244.40
2012,06,10,08,36,224.80
2012,06,10,08,37,211.50
2012,06,10,08,38,206.40
2012,06,10,08,39,206.00
2012,06,10,08,40,209.60
2012,06,10,08,41,217.50
2012,06,10,08,42,225.40
2012,06,10,08,43,229.50
2012,06,10,08,44,231.30
2012,06,10,08,45,233.60
2012,06,10,08,46,234.20
2012,06,10,08,47,237.20
2012,06,10,08,48,241.80
2012,06,10,08,49,243.60
2012,06,10,08,50,246.90
2012,06,10,08,51,255.60
2012,06,10,08,52,265.20
2012,06,10,08,53,269.80
2012,06,10,08,54,274.40
2012,06,10,08,55,279.70
2012,06,10,08,56,281.00
2012,06,10,08,57,284.40
2012,06,10,08,58,292.50
2012,06,10,08,59,295.00
2012,06,10,09,00,291.90
2012,06,10,09,01,283.00
2012,06,10,09,02,273.00
2012,06,10,09,03,274.00
2012,06,10,09,04,281.30
2012,06,10,09,05,281.80
2012,06,10,09,06,276.60
2012,06,10,09,07,268.60
2012,06,10,09,08,265.00
2012,06,10,09,09,269.10
2012,06,10,09,10,280.60
2012,06,10,09,11,286.30
2012,06,10,09,12,280.50
2012,06,10,09,13,277.30
2012,06,10,09,14,278.80
2012,06,10,09,15,284.90
2012,06,10,09,16,291.10
2012,06,10,09,17,293.20
2012,06,10,09,18,285.50
2012,06,10,09,19,269.00
2012,06,10,09,20,250.80
2012,06,10,09,21,237.80
2012,06,10,09,22,240.90
2012,06,10,09,23,250.80
2012,06,10,09,24,266.50
2012,06,10,09,25,299.90
2012,06,10,09,26,325.40
2012,06,10,09,27,321.50
2012,06,10,09,28,306.50
2012,06,10,09,29,297.00
2012,06,10,09,30,294.00
2012,06,10,09,31,283.50
2012,06,10,09,32,280.70
2012,06,10,09,33,277.10
2012,06,10,09,34,268.30
2012,06,10,09,35,263.30
2012,06,10,09,36,272.70
2012,06,10,09,37,283.40
2012,06,10,09,38,289.20
2012,06,10,09,39,302.30
2012,06,10,09,40,324.20
2012,06,10,09,41,342.50
2012,06,10,09,42,366.80
2012,06,10,09,43,384.80
2012,06,10,09,44,396.50
2012,06,10,09,45,407.00
2012,06,10,09,46,411.00
2012,06,10,09,47,410.50
2012,06,10,09,48,410.00
2012,06,10,09,49,410.00
2012,06,10,09,50,410.00
2012,06,10,09,51,410.50
2012,06,10,09,52,415.10
2012,06,10,09,53,423.50
2012,06,10,09,54,441.50
2012,06,10,09,55,453.80
2012,06,10,09,56,463.10
2012,06,10,09,57,454.80
2012,06,10,09,58,459.50
2012,06,10,09,59,486.50
2012,06,10,10,00,519.00
2012,06,10,10,01,503.00
2012,06,10,10,02,459.50
2012,06,10,10,03,444.50
2012,06,10,10,04,444.20
2012,06,10,10,05,448.10
2012,06,10,10,06,457.80
2012,06,10,10,07,479.00
2012,06,10,10,08,508.80
2012,06,10,10,09,536.80
2012,06,10,10,10,546.80
2012,06,10,10,11,535.00
2012,06,10,10,12,534.40
2012,06,10,10,13,532.10
2012,06,10,10,14,568.70
2012,06,10,10,15,622.00
2012,06,10,10,16,643.50
2012,06,10,10,17,643.30
2012,06,10,10,18,667.80
2012,06,10,10,19,672.40
2012,06,10,10,20,634.80
2012,06,10,10,21,565.30
2012,06,10,10,22,536.80
2012,06,10,10,23,534.70
2012,06,10,10,24,554.40
2012,06,10,10,25,577.80
2012,06,10,10,26,592.60
2012,06,10,10,27,586.40
2012,06,10,10,28,520.90
2012,06,10,10,29,421.40
2012,06,10,10,30,387.00
2012,06,10,10,31,444.20
2012,06,10,10,32,496.80
2012,06,10,10,33,505.70
2012,06,10,10,34,477.50
2012,06,10,10,35,451.50
2012,06,10,10,36,455.80
2012,06,10,10,37,471.50
2012,06,10,10,38,487.80
2012,06,10,10,39,464.00
2012,06,10,10,40,447.50
2012,06,10,10,41,443.00
2012,06,10,10,42,476.70
2012,06,10,10,43,525.00
2012,06,10,10,44,542.40
2012,06,10,10,45,561.80
2012,06,10,10,46,567.10
2012,06,10,10,47,568.00
2012,06,10,10,48,570.50
2012,06,10,10,49,585.30
2012,06,10,10,50,596.50
2012,06,10,10,51,598.00
2012,06,10,10,52,576.50
2012,06,10,10,53,533.70
2012,06,10,10,54,490.50
2012,06,10,10,55,462.30
2012,06,10,10,56,446.50
2012,06,10,10,57,437.90
2012,06,10,10,58,422.20
2012,06,10,10,59,415.00
2012,06,10,11,00,420.90
2012,06,10,11,01,427.80
2012,06,10,11,02,434.20
2012,06,10,11,03,439.90
2012,06,10,11,04,439.80
2012,06,10,11,05,439.00
2012,06,10,11,06,438.10
2012,06,10,11,07,432.60
2012,06,10,11,08,420.80
2012,06,10,11,09,411.00
2012,06,10,11,10,414.80
2012,06,10,11,11,423.00
2012,06,10,11,12,423.90
2012,06,10,11,13,416.80
2012,06,10,11,14,405.40
2012,06,10,11,15,416.00
2012,06,10,11,16,433.50
2012,06,10,11,17,447.20
2012,06,10,11,18,464.10
2012,06,10,11,19,461.00
2012,06,10,11,20,461.00
2012,06,10,11,21,591.50
2012,06,10,11,22,722.00
2012,06,10,11,23,722.00
2012,06,10,11,24,713.40
2012,06,10,11,25,636.00
2012,06,10,11,26,599.20
2012,06,10,11,27,536.00
2012,06,10,11,28,536.00
2012,06,10,11,29,536.00
2012,06,10,11,30,703.20
2012,06,10,11,31,712.00
2012,06,10,11,32,712.00
2012,06,10,11,33,712.00
2012,06,10,11,34,712.00
2012,06,10,11,35,712.00
2012,06,10,11,36,682.40
2012,06,10,11,37,431.00
2012,06,10,11,38,431.00
2012,06,10,11,39,431.00
2012,06,10,11,40,523.40
2012,06,10,11,41,609.50
2012,06,10,11,42,625.30
2012,06,10,11,43,696.60
2012,06,10,11,44,724.00
2012,06,10,11,45,724.00
2012,06,10,11,46,679.80
2012,06,10,11,47,664.00
2012,06,10,11,48,681.80
2012,06,10,11,49,784.50
2012,06,10,11,50,795.80
2012,06,10,11,51,844.20
2012,06,10,11,52,945.50
2012,06,10,11,53,989.40
2012,06,10,11,54,977.00
2012,06,10,11,55,977.00
2012,06,10,11,56,977.00
2012,06,10,11,57,977.00
2012,06,10,11,58,863.30
2012,06,10,11,59,841.10
2012,06,10,12,00,889.50
2012,06,10,12,01,816.00
2012,06,10,12,02,816.00
2012,06,10,12,03,816.00
2012,06,10,12,04,872.00
2012,06,10,12,05,901.30
2012,06,10,12,06,1038.20
2012,06,10,12,07,1021.00
2012,06,10,12,08,1000.00
2012,06,10,12,09,1008.50
2012,06,10,12,10,1017.20
2012,06,10,12,11,1052.20
2012,06,10,12,12,1028.00
2012,06,10,12,13,1028.00
2012,06,10,12,14,892.00
2012,06,10,12,15,756.00
2012,06,10,12,16,1013.70
2012,06,10,12,17,1078.20
2012,06,10,12,18,1029.00
2012,06,10,12,19,869.70
2012,06,10,12,20,846.00
2012,06,10,12,21,846.00
2012,06,10,12,22,846.00
2012,06,10,12,23,846.00
2012,06,10,12,24,846.00
2012,06,10,12,25,846.00
2012,06,10,12,26,846.00
2012,06,10,12,27,846.00
2012,06,10,12,28,846.00
2012,06,10,12,29,1045.40
2012,06,10,12,30,967.00
2012,06,10,12,31,967.00
2012,06,10,12,32,863.40
2012,06,10,12,33,803.00
2012,06,10,12,34,803.00
2012,06,10,12,35,803.00
2012,06,10,12,36,803.00
2012,06,10,12,37,704.50
2012,06,10,12,38,606.00
2012,06,10,12,39,1227.60
2012,06,10,12,40,1421.80
2012,06,10,12,41,1292.20
2012,06,10,12,42,777.20
2012,06,10,12,43,773.50
2012,06,10,12,44,685.10
2012,06,10,12,45,586.80
2012,06,10,12,46,493.20
2012,06,10,12,47,415.00
2012,06,10,12,48,377.30
2012,06,10,12,49,357.40
2012,06,10,12,50,397.50
2012,06,10,12,51,440.60
2012,06,10,12,52,454.40
2012,06,10,12,53,463.80
2012,06,10,12,54,468.00
2012,06,10,12,55,463.00
2012,06,10,12,56,446.40
2012,06,10,12,57,415.70
2012,06,10,12,58,359.50
2012,06,10,12,59,312.50
2012,06,10,13,00,279.20
2012,06,10,13,01,261.60
2012,06,10,13,02,264.60
2012,06,10,13,03,270.10
2012,06,10,13,04,266.40
2012,06,10,13,05,277.30
2012,06,10,13,06,286.40
2012,06,10,13,07,297.60
2012,06,10,13,08,310.60
2012,06,10,13,09,324.40
2012,06,10,13,10,337.60
2012,06,10,13,11,346.60
2012,06,10,13,12,348.90
2012,06,10,13,13,347.50
2012,06,10,13,14,356.50
2012,06,10,13,15,368.10
2012,06,10,13,16,374.60
2012,06,10,13,17,406.50
2012,06,10,13,18,433.00
2012,06,10,13,19,440.00
2012,06,10,13,20,412.50
2012,06,10,13,21,360.90
2012,06,10,13,22,315.80
2012,06,10,13,23,278.40
2012,06,10,13,24,260.00
2012,06,10,13,25,249.80
2012,06,10,13,26,238.00
2012,06,10,13,27,232.00
2012,06,10,13,28,229.20
2012,06,10,13,29,227.80
2012,06,10,13,30,235.30
2012,06,10,13,31,259.20
2012,06,10,13,32,313.60
2012,06,10,13,33,381.10
2012,06,10,13,34,429.80
2012,06,10,13,35,461.00
2012,06,10,13,36,462.80
2012,06,10,13,37,456.40
2012,06,10,13,38,426.80
2012,06,10,13,39,421.60
2012,06,10,13,40,484.60
2012,06,10,13,41,472.20
2012,06,10,13,42,476.40
2012,06,10,13,43,522.20
2012,06,10,13,44,548.20
2012,06,10,13,45,580.00
2012,06,10,13,46,662.60
2012,06,10,13,47,650.00
2012,06,10,13,48,581.00
2012,06,10,13,49,557.00
2012,06,10,13,50,739.50
2012,06,10,13,51,670.00
2012,06,10,13,52,670.00
2012,06,10,13,53,629.30
2012,06,10,13,54,534.20
2012,06,10,13,55,427.50
2012,06,10,13,56,374.30
2012,06,10,13,57,372.80
2012,06,10,13,58,389.30
2012,06,10,13,59,405.50
2012,06,10,14,00,426.40
2012,06,10,14,01,413.20
2012,06,10,14,02,419.40
2012,06,10,14,03,426.80
2012,06,10,14,04,501.90
2012,06,10,14,05,546.10
2012,06,10,14,06,570.50
2012,06,10,14,07,515.40
2012,06,10,14,08,484.20
2012,06,10,14,09,552.00
2012,06,10,14,10,585.00
2012,06,10,14,11,488.50
2012,06,10,14,12,364.70
2012,06,10,14,13,362.80
2012,06,10,14,14,374.20
2012,06,10,14,15,453.80
2012,06,10,14,16,505.90
2012,06,10,14,17,605.20
2012,06,10,14,18,639.30
2012,06,10,14,19,647.80
2012,06,10,14,20,585.50
2012,06,10,14,21,622.00
2012,06,10,14,22,629.70
2012,06,10,14,23,631.30
2012,06,10,14,24,668.80
2012,06,10,14,25,680.30
2012,06,10,14,26,696.70
2012,06,10,14,27,780.90
2012,06,10,14,28,780.60
2012,06,10,14,29,810.00
2012,06,10,14,30,812.00
2012,06,10,14,31,805.50
2012,06,10,14,32,790.80
2012,06,10,14,33,773.80
2012,06,10,14,34,833.00
2012,06,10,14,35,833.00
2012,06,10,14,36,788.00
2012,06,10,14,37,781.30
2012,06,10,14,38,933.40
2012,06,10,14,39,909.60
2012,06,10,14,40,895.50
2012,06,10,14,41,832.80
2012,06,10,14,42,767.00
2012,06,10,14,43,761.80
2012,06,10,14,44,831.00
2012,06,10,14,45,831.00
2012,06,10,14,46,835.50
2012,06,10,14,47,806.80
2012,06,10,14,48,789.00
2012,06,10,14,49,751.20
2012,06,10,14,50,675.20
2012,06,10,14,51,686.20
2012,06,10,14,52,702.60
2012,06,10,14,53,732.30
2012,06,10,14,54,729.00
2012,06,10,14,55,676.30
2012,06,10,14,56,369.30
2012,06,10,14,57,361.80
2012,06,10,14,58,383.10
2012,06,10,14,59,365.60
2012,06,10,15,00,357.40
2012,06,10,15,01,376.50
2012,06,10,15,02,396.80
2012,06,10,15,03,389.00
2012,06,10,15,04,367.40
2012,06,10,15,05,364.80
2012,06,10,15,06,371.60
2012,06,10,15,07,401.80
2012,06,10,15,08,406.20
2012,06,10,15,09,374.20
2012,06,10,15,10,363.70
2012,06,10,15,11,395.00
2012,06,10,15,12,407.80
2012,06,10,15,13,419.60
2012,06,10,15,14,397.20
2012,06,10,15,15,380.20
2012,06,10,15,16,399.80
2012,06,10,15,17,445.50
2012,06,10,15,18,459.40
2012,06,10,15,19,465.20
2012,06,10,15,20,430.50
2012,06,10,15,21,421.50
2012,06,10,15,22,462.20
2012,06,10,15,23,486.00
2012,06,10,15,24,478.10
2012,06,10,15,25,410.80
2012,06,10,15,26,403.70
2012,06,10,15,27,400.00
2012,06,10,15,28,416.20
2012,06,10,15,29,429.60
2012,06,10,15,30,445.00
2012,06,10,15,31,517.70
2012,06,10,15,32,575.10
2012,06,10,15,33,605.00
2012,06,10,15,34,494.20
2012,06,10,15,35,467.00
2012,06,10,15,36,509.90
2012,06,10,15,37,464.00
2012,06,10,15,38,464.00
2012,06,10,15,39,425.10
2012,06,10,15,40,420.80
2012,06,10,15,41,496.30
2012,06,10,15,42,508.00
2012,06,10,15,43,504.40
2012,06,10,15,44,484.80
2012,06,10,15,45,457.70
2012,06,10,15,46,450.80
2012,06,10,15,47,456.20
2012,06,10,15,48,444.10
2012,06,10,15,49,451.50
2012,06,10,15,50,466.80
2012,06,10,15,51,486.90
2012,06,10,15,52,482.50
2012,06,10,15,53,480.00
2012,06,10,15,54,480.00
2012,06,10,15,55,472.50
2012,06,10,15,56,472.50
2012,06,10,15,57,527.60
2012,06,10,15,58,571.30
2012,06,10,15,59,569.50
2012,06,10,16,00,425.10
2012,06,10,16,01,413.80
2012,06,10,16,02,409.50
2012,06,10,16,03,414.30
2012,06,10,16,04,402.20
2012,06,10,16,05,399.00
2012,06,10,16,06,399.00
2012,06,10,16,07,541.80
2012,06,10,16,08,797.50
2012,06,10,16,09,788.00
2012,06,10,16,10,651.60
2012,06,10,16,11,633.50
2012,06,10,16,12,688.60
2012,06,10,16,13,666.00
2012,06,10,16,14,696.10
2012,06,10,16,15,712.20
2012,06,10,16,16,715.00
2012,06,10,16,17,704.50
2012,06,10,16,18,735.60
2012,06,10,16,19,749.00
2012,06,10,16,20,755.90
2012,06,10,16,21,772.70
2012,06,10,16,22,766.90
2012,06,10,16,23,779.00
2012,06,10,16,24,779.00
2012,06,10,16,25,622.40
2012,06,10,16,26,431.00
2012,06,10,16,27,431.00
2012,06,10,16,28,482.90
2012,06,10,16,29,537.00
2012,06,10,16,30,781.20
2012,06,10,16,31,756.80
2012,06,10,16,32,685.60
2012,06,10,16,33,666.00
2012,06,10,16,34,753.30
2012,06,10,16,35,701.40
2012,06,10,16,36,664.70
2012,06,10,16,37,654.00
2012,06,10,16,38,661.30
2012,06,10,16,39,679.00
2012,06,10,16,40,467.50
2012,06,10,16,41,372.20
2012,06,10,16,42,390.40
2012,06,10,16,43,390.30
2012,06,10,16,44,399.50
2012,06,10,16,45,384.40
2012,06,10,16,46,397.90
2012,06,10,16,47,430.80
2012,06,10,16,48,457.00
2012,06,10,16,49,457.00
2012,06,10,16,50,678.00
2012,06,10,16,51,780.00
2012,06,10,16,52,781.60
2012,06,10,16,53,796.00
2012,06,10,16,54,796.00
2012,06,10,16,55,796.00
2012,06,10,16,56,579.80
2012,06,10,16,57,476.00
2012,06,10,16,58,398.00
2012,06,10,16,59,412.30
2012,06,10,17,00,367.70
2012,06,10,17,01,332.00
2012,06,10,17,02,315.20
2012,06,10,17,03,325.60
2012,06,10,17,04,382.60
2012,06,10,17,05,368.50
2012,06,10,17,06,387.00